Погода в Оротукане

Россия / Магаданская область     62°15′51″N   151°40′20″E
В апреле 2022 года жителям России запретили посещать сайт meteo.paraplan.net по решению Генеральной прокуратуры. Аудитория сайта уменьшилась в 10 раз. Владельцы сайта не видят смысла в поддержке погодного сервера в таких условиях. Сайт будет закрыт в октябре.
темп.,
°C
ветер,
м/с
пор.,
м/с
влажн.,
%
обл.,
%
осадки,
мм/ч
давл.,
гПа
погр.,
м
6 октября, чт
чт623:00−10зсз2296100 3.3 990118
02:00−11з2296100 1.3 99053
05:00−12з2297100 1.9 99124
08:00−11зюз2595100 0.6 992258
11:00−10з3688100 1.1 993594
14:00−9зсз4782100 0.1 994681
17:00−9з2391100 0.2 99791
20:00−10зюз2296100 0.3 99922
7 октября, пт
пт723:00−9зюз2396100 0.6 1001124
02:00−10зюз2296100 0.3 100417
05:00−10зюз2196100 0.7 100716
08:00−11юз1197100 0.3 101015
11:00−8з1192100 0.5 1011136
14:00−7зсз1288100 0.1 1012238
17:00−10зюз119393 0.1 101410
20:00−16ююз329876 0.0 101710
8 октября, сб
сб823:00−15ююз339153 0.0 101811
02:00−16ююз438873 0.0 101712
05:00−16ююз438953 0.0 101814
08:00−16ююз438853 0.0 101819
11:00−11ююз33829 0.0 101696
14:00−9ююз33815 0.0 1015146
17:00−13ююз43855 0.0 101617
20:00−15ююз44835 0.0 101718
9 октября, вс
вс923:00−16ююз44835 0.0 101817
02:00−17ююз43865 0.0 101814
05:00−19ююз43888 0.0 101813
08:00−19ююз33907 0.0 101913
11:00−13зюз11825 0.0 101758
14:00−11з11805 0.0 1016103
17:00−16юз119039 0.0 10179
20:00−21ююз329286 0.0 10199
10 октября, пн
пн1023:00−20ююз328790 0.0 10199
02:00−20ююз228866 0.0 10189
05:00−20ююз229079 0.0 10199
08:00−20ююз229193 0.0 10199
11:00−14зюз118695 0.0 101861
14:00−12сз118298 0.0 1018157
17:00−14зсз1192100 0.0 10199
20:00−18ююз2197100 0.0 10229